| time (UTC) | temp F | wind direction | speed MPH | gust MPH | rain 1hr in | rain 24hr in | rain mn in | humidity % | barometer mb |
| 20260503201849 | 59 | 219 | 4.0 | 12.0 | 0.00 | 0.00 | 0.00 | 43 | 1015.7 |
| 20260503201341 | 59 | 224 | 6.0 | 12.0 | 0.00 | 0.00 | 0.00 | 46 | 1015.6 |
| 20260503200812 | 59 | 232 | 8.0 | 13.0 | 0.00 | 0.00 | 0.00 | 45 | 1015.5 |
| 20260503200345 | 59 | 209 | 8.0 | 14.0 | 0.00 | 0.00 | 0.00 | 43 | 1015.6 |
| 20260503195817 | 59 | 205 | 9.0 | 14.0 | 0.00 | 0.00 | 0.00 | 43 | 1015.7 |
| 20260503195330 | 60 | 276 | 9.0 | 14.0 | 0.00 | 0.00 | 0.00 | 44 | 1015.8 |
| 20260503194822 | 59 | 222 | 6.0 | 14.0 | 0.00 | 0.00 | 0.00 | 45 | 1015.8 |
| 20260503194319 | 59 | 224 | 6.0 | 10.0 | 0.00 | 0.00 | 0.00 | 44 | 1015.8 |
| 20260503193812 | 59 | 232 | 4.0 | 10.0 | 0.00 | 0.00 | 0.00 | 45 | 1015.9 |
| 20260503193325 | 59 | 174 | 6.0 | 15.0 | 0.00 | 0.00 | 0.00 | 44 | 1016.0 |
| 20260503192838 | 59 | 257 | 7.0 | 15.0 | 0.00 | 0.00 | 0.00 | 44 | 1016.2 |
| 20260503192330 | 59 | 257 | 6.0 | 18.0 | 0.00 | 0.00 | 0.00 | 44 | 1016.4 |
| 20260503191841 | 60 | 215 | 8.0 | 17.0 | 0.00 | 0.00 | 0.00 | 42 | 1016.5 |
| 20260503191332 | 60 | 181 | 5.0 | 13.0 | 0.00 | 0.00 | 0.00 | 45 | 1016.6 |
| 20260503190825 | 60 | 206 | 6.0 | 13.0 | 0.00 | 0.00 | 0.00 | 44 | 1016.6 |
| 20260503190317 | 61 | 233 | 6.0 | 15.0 | 0.00 | 0.00 | 0.00 | 42 | 1016.7 |
| 20260503185814 | 61 | 232 | 9.0 | 15.0 | 0.00 | 0.00 | 0.00 | 42 | 1016.8 |
| 20260503185327 | 61 | 251 | 5.0 | 14.0 | 0.00 | 0.00 | 0.00 | 43 | 1016.8 |
| 20260503184820 | 61 | 206 | 7.0 | 16.0 | 0.00 | 0.00 | 0.00 | 43 | 1016.9 |
| 20260503184312 | 60 | 265 | 10.0 | 16.0 | 0.00 | 0.00 | 0.00 | 43 | 1016.8 |
| 20260503183826 | 60 | 254 | 7.0 | 14.0 | 0.00 | 0.00 | 0.00 | 43 | 1017.0 |
| 20260503183318 | 60 | 245 | 9.0 | 16.0 | 0.00 | 0.00 | 0.00 | 42 | 1017.0 |
| 20260503182831 | 59 | 256 | 10.0 | 16.0 | 0.00 | 0.00 | 0.00 | 43 | 1017.1 |
| 20260503182323 | 59 | 200 | 8.0 | 14.0 | 0.00 | 0.00 | 0.00 | 41 | 1017.2 |
| 20260503181836 | 59 | 260 | 9.0 | 17.0 | 0.00 | 0.00 | 0.00 | 42 | 1017.3 |
| 20260503181311 | 59 | 259 | 10.0 | 17.0 | 0.00 | 0.00 | 0.00 | 43 | 1017.3 |
| 20260503180825 | 59 | 240 | 8.0 | 14.0 | 0.00 | 0.00 | 0.00 | 41 | 1017.3 |
| 20260503180318 | 59 | 255 | 9.0 | 15.0 | 0.00 | 0.00 | 0.00 | 42 | 1017.4 |
| 20260503175811 | 59 | 244 | 8.0 | 15.0 | 0.00 | 0.00 | 0.00 | 43 | 1017.4 |
| 20260503175323 | 59 | 247 | 7.0 | 18.0 | 0.00 | 0.00 | 0.00 | 43 | 1017.4 |
| 20260503174836 | 59 | 176 | 8.0 | 18.0 | 0.00 | 0.00 | 0.00 | 43 | 1017.4 |
| 20260503174328 | 59 | 211 | 8.0 | 15.0 | 0.00 | 0.00 | 0.00 | 41 | 1017.6 |
| 20260503173821 | 60 | 169 | 8.0 | 15.0 | 0.00 | 0.00 | 0.00 | 39 | 1017.7 |
| 20260503173314 | 60 | 182 | 10.0 | 16.0 | 0.00 | 0.00 | 0.00 | 45 | 1017.7 |
| 20260503172810 | 60 | 203 | 8.0 | 16.0 | 0.00 | 0.00 | 0.00 | 45 | 1017.8 |
| 20260503172323 | 60 | 274 | 5.0 | 16.0 | 0.00 | 0.00 | 0.00 | 42 | 1017.8 |
| 20260503171817 | 59 | 183 | 7.0 | 16.0 | 0.00 | 0.00 | 0.00 | 46 | 1018.1 |
| 20260503171330 | 59 | 250 | 8.0 | 13.0 | 0.00 | 0.00 | 0.00 | 41 | 1018.0 |
| 20260503170822 | 59 | 246 | 4.0 | 13.0 | 0.00 | 0.00 | 0.00 | 44 | 1018.2 |
| 20260503170315 | 59 | 244 | 9.0 | 15.0 | 0.00 | 0.00 | 0.00 | 43 | 1018.2 |
| 20260503150816 | 55 | 272 | 7.0 | 13.0 | 0.00 | 0.00 | 0.00 | 51 | 1019.6 |
| 20260503150329 | 55 | 261 | 8.0 | 13.0 | 0.00 | 0.00 | 0.00 | 53 | 1019.6 |
| 20260503131319 | 43 | 238 | 5.0 | 8.0 | 0.00 | 0.00 | 0.00 | 96 | 1019.6 |
| 20260503130812 | 43 | 221 | 4.0 | 6.0 | 0.00 | 0.00 | 0.00 | 96 | 1019.6 |
| 20260503130324 | 43 | 206 | 4.0 | 8.0 | 0.00 | 0.00 | 0.00 | 96 | 1019.7 |
| 20260503110317 | 28 | 15 | 0.0 | 0.0 | 0.00 | 0.00 | 0.00 | 96 | 1019.0 |
| 20260503090330 | 29 | 15 | 0.0 | 0.0 | 0.00 | 0.00 | 0.00 | 95 | 1018.5 |
| 20260503081325 | 28 | 15 | 0.0 | 0.0 | 0.00 | 0.00 | 0.00 | 94 | 1018.5 |
| 20260503080818 | 28 | 15 | 0.0 | 0.0 | 0.00 | 0.00 | 0.00 | 94 | 1018.5 |
| 20260503080311 | 29 | 15 | 0.0 | 0.0 | 0.00 | 0.00 | 0.00 | 94 | 1018.5 |
| 20260503072824 | 30 | 15 | 0.0 | 0.0 | 0.00 | 0.00 | 0.00 | 94 | 1018.4 |
| 20260503072317 | 30 | 15 | 0.0 | 0.0 | 0.00 | 0.00 | 0.00 | 94 | 1018.4 |
| 20260503071830 | 31 | 15 | 0.0 | 0.0 | 0.00 | 0.00 | 0.00 | 95 | 1018.4 |
| 20260503071343 | 31 | 15 | 0.0 | 0.0 | 0.00 | 0.00 | 0.00 | 95 | 1018.4 |
| 20260503070815 | 31 | 15 | 0.0 | 0.0 | 0.00 | 0.00 | 0.00 | 95 | 1018.5 |
| 20260503070327 | 30 | 15 | 0.0 | 0.0 | 0.00 | 0.00 | 0.00 | 95 | 1018.5 |
| 20260503060327 | 30 | 15 | 0.0 | 0.0 | 0.00 | 0.00 | 0.00 | 94 | 1018.9 |
| 20260503054844 | 30 | 15 | 0.0 | 0.0 | 0.00 | 0.00 | 0.00 | 94 | 1018.9 |
| 20260503054315 | 30 | 15 | 0.0 | 0.0 | 0.00 | 0.00 | 0.00 | 94 | 1018.9 |
| 20260503053828 | 31 | 15 | 0.0 | 0.0 | 0.00 | 0.00 | 0.00 | 94 | 1018.9 |
| 20260503053321 | 31 | 15 | 0.0 | 0.0 | 0.00 | 0.00 | 0.00 | 94 | 1018.9 |
| 20260503052814 | 31 | 15 | 0.0 | 0.0 | 0.00 | 0.00 | 0.00 | 94 | 1018.9 |
| 20260503052310 | 31 | 15 | 0.0 | 0.0 | 0.00 | 0.00 | 0.00 | 94 | 1018.9 |
| 20260503051823 | 31 | 15 | 0.0 | 0.0 | 0.00 | 0.00 | 0.00 | 94 | 1018.9 |
| 20260503051316 | 31 | 15 | 0.0 | 0.0 | 0.00 | 0.00 | 0.00 | 94 | 1018.8 |
| 20260503050829 | 30 | 15 | 0.0 | 0.0 | 0.00 | 0.00 | 0.00 | 93 | 1018.9 |
| 20260503050322 | 31 | 15 | 0.0 | 0.0 | 0.00 | 0.00 | 0.00 | 93 | 1018.9 |
| 20260503045835 | 31 | 15 | 0.0 | 0.0 | 0.00 | 0.00 | 0.00 | 93 | 1018.9 |
| 20260503045327 | 31 | 15 | 0.0 | 0.0 | 0.00 | 0.00 | 0.00 | 93 | 1018.8 |
| 20260503044819 | 32 | 15 | 0.0 | 0.0 | 0.00 | 0.00 | 0.00 | 94 | 1018.8 |
| 20260503044312 | 32 | 15 | 0.0 | 0.0 | 0.00 | 0.00 | 0.00 | 94 | 1018.9 |
| 20260503043829 | 33 | 15 | 0.0 | 0.0 | 0.00 | 0.00 | 0.00 | 94 | 1018.9 |
| 20260503043342 | 33 | 15 | 0.0 | 0.0 | 0.00 | 0.00 | 0.00 | 94 | 1018.8 |
| 20260503042814 | 32 | 15 | 0.0 | 0.0 | 0.00 | 0.00 | 0.00 | 94 | 1018.8 |
| 20260503042327 | 32 | 15 | 0.0 | 0.0 | 0.00 | 0.00 | 0.00 | 94 | 1018.8 |
| 20260503041840 | 32 | 15 | 0.0 | 0.0 | 0.00 | 0.00 | 0.00 | 93 | 1018.8 |
| 20260503041311 | 32 | 15 | 0.0 | 0.0 | 0.00 | 0.00 | 0.00 | 93 | 1018.8 |
| 20260503040824 | 32 | 15 | 0.0 | 0.0 | 0.00 | 0.00 | 0.00 | 93 | 1018.9 |
| 20260503040318 | 33 | 15 | 0.0 | 0.0 | 0.00 | 0.00 | 0.00 | 93 | 1018.8 |
| 20260503035810 | 33 | 15 | 0.0 | 0.0 | 0.00 | 0.00 | 0.00 | 93 | 1018.8 |
| 20260503035343 | 32 | 15 | 0.0 | 0.0 | 0.00 | 0.00 | 0.00 | 93 | 1018.9 |
| 20260503034819 | 32 | 15 | 0.0 | 0.0 | 0.00 | 0.00 | 0.00 | 92 | 1018.9 |
| 20260503034311 | 32 | 15 | 0.0 | 0.0 | 0.00 | 0.00 | 0.00 | 91 | 1018.9 |
| 20260503033845 | 33 | 15 | 0.0 | 0.0 | 0.00 | 0.00 | 0.00 | 92 | 1018.9 |
| 20260503033316 | 33 | 15 | 0.0 | 0.0 | 0.00 | 0.00 | 0.00 | 91 | 1019.0 |
| 20260503032829 | 33 | 15 | 0.0 | 0.0 | 0.00 | 0.00 | 0.00 | 91 | 1019.0 |
| 20260503032322 | 33 | 15 | 0.0 | 0.0 | 0.00 | 0.00 | 0.00 | 92 | 1019.0 |
| 20260503031815 | 33 | 15 | 0.0 | 0.0 | 0.00 | 0.00 | 0.00 | 91 | 1019.0 |
| 20260503031348 | 33 | 15 | 0.0 | 0.0 | 0.00 | 0.00 | 0.00 | 89 | 1018.9 |
| 20260503030819 | 33 | 15 | 0.0 | 0.0 | 0.00 | 0.00 | 0.00 | 87 | 1019.0 |
| 20260503030316 | 34 | 15 | 0.0 | 0.0 | 0.00 | 0.00 | 0.00 | 88 | 1019.0 |
| 20260503025829 | 34 | 15 | 0.0 | 0.0 | 0.00 | 0.00 | 0.00 | 88 | 1019.0 |
| 20260503025322 | 34 | 15 | 0.0 | 0.0 | 0.00 | 0.00 | 0.00 | 88 | 1019.0 |
| 20260503024815 | 35 | 15 | 0.0 | 0.0 | 0.00 | 0.00 | 0.00 | 88 | 1019.0 |
| 20260503024328 | 34 | 15 | 0.0 | 0.0 | 0.00 | 0.00 | 0.00 | 87 | 1018.9 |
| 20260503023821 | 34 | 15 | 0.0 | 0.0 | 0.00 | 0.00 | 0.00 | 84 | 1018.9 |
| 20260503023313 | 35 | 15 | 0.0 | 0.0 | 0.00 | 0.00 | 0.00 | 83 | 1018.9 |
| 20260503022847 | 36 | 15 | 0.0 | 0.0 | 0.00 | 0.00 | 0.00 | 83 | 1019.0 |
| 20260503022322 | 36 | 15 | 0.0 | 0.0 | 0.00 | 0.00 | 0.00 | 82 | 1018.9 |
| 20260503021835 | 37 | 15 | 0.0 | 0.0 | 0.00 | 0.00 | 0.00 | 83 | 1018.9 |
| 20260503021327 | 37 | 15 | 0.0 | 0.0 | 0.00 | 0.00 | 0.00 | 83 | 1018.9 |
| 20260503020820 | 37 | 15 | 0.0 | 0.0 | 0.00 | 0.00 | 0.00 | 82 | 1018.8 |
| 20260503020313 | 38 | 15 | 0.0 | 0.0 | 0.00 | 0.00 | 0.00 | 81 | 1018.7 |
| 20260503015826 | 38 | 15 | 0.0 | 0.0 | 0.00 | 0.00 | 0.00 | 81 | 1018.7 |
| 20260503015338 | 38 | 15 | 0.0 | 0.0 | 0.00 | 0.00 | 0.00 | 81 | 1018.7 |
| 20260503014810 | 38 | 15 | 0.0 | 0.0 | 0.00 | 0.00 | 0.00 | 81 | 1018.6 |
| 20260503014343 | 38 | 15 | 0.0 | 0.0 | 0.00 | 0.00 | 0.00 | 80 | 1018.6 |
| 20260503013815 | 39 | 15 | 0.0 | 0.0 | 0.00 | 0.00 | 0.00 | 79 | 1018.6 |
| 20260503013312 | 39 | 15 | 0.0 | 0.0 | 0.00 | 0.00 | 0.00 | 78 | 1018.5 |
| 20260503012825 | 40 | 15 | 0.0 | 0.0 | 0.00 | 0.00 | 0.00 | 77 | 1018.6 |
| 20260503012317 | 40 | 15 | 0.0 | 0.0 | 0.00 | 0.00 | 0.00 | 76 | 1018.5 |
| 20260503011810 | 41 | 15 | 0.0 | 0.0 | 0.00 | 0.00 | 0.00 | 74 | 1018.4 |
| 20260503011323 | 41 | 15 | 0.0 | 0.0 | 0.00 | 0.00 | 0.00 | 71 | 1018.4 |
| 20260503010816 | 42 | 15 | 0.0 | 1.0 | 0.00 | 0.00 | 0.00 | 69 | 1018.3 |
| 20260503010328 | 43 | 15 | 0.0 | 1.0 | 0.00 | 0.00 | 0.00 | 67 | 1018.3 |
| 20260503005841 | 44 | 15 | 0.0 | 1.0 | 0.00 | 0.00 | 0.00 | 65 | 1018.2 |
| 20260503005316 | 44 | 15 | 0.0 | 2.0 | 0.00 | 0.00 | 0.00 | 62 | 1018.2 |
| 20260503004829 | 45 | 15 | 0.0 | 3.0 | 0.00 | 0.00 | 0.00 | 60 | 1018.1 |
| 20260503004322 | 45 | 12 | 0.0 | 4.0 | 0.00 | 0.00 | 0.00 | 60 | 1018.1 |
| 20260503003815 | 46 | 350 | 1.0 | 4.0 | 0.00 | 0.00 | 0.00 | 59 | 1018.1 |
| 20260503003328 | 46 | 15 | 2.0 | 4.0 | 0.00 | 0.00 | 0.00 | 59 | 1018.1 |
| 20260503002841 | 46 | 18 | 1.0 | 3.0 | 0.00 | 0.00 | 0.00 | 58 | 1018.1 |
| 20260503002313 | 47 | 323 | 2.0 | 5.0 | 0.00 | 0.00 | 0.00 | 58 | 1018.0 |
| 20260503001826 | 47 | 344 | 2.0 | 5.0 | 0.00 | 0.00 | 0.00 | 58 | 1018.0 |
| 20260503001319 | 47 | 347 | 2.0 | 5.0 | 0.00 | 0.00 | 0.00 | 57 | 1017.9 |
| 20260503000912 | 47 | 35 | 2.0 | 6.0 | 0.00 | 0.00 | 0.00 | 57 | 1018.0 |
| 20260503000325 | 48 | 8 | 3.0 | 6.0 | 0.00 | 0.00 | 0.00 | 56 | 1017.9 |
| 20260502235817 | 48 | 22 | 2.0 | 11.0 | 0.00 | 0.00 | 0.00 | 56 | 1017.9 |
| 20260502235350 | 48 | 352 | 3.0 | 13.0 | 0.00 | 0.00 | 0.00 | 55 | 1017.8 |
| 20260502234842 | 49 | 4 | 6.0 | 13.0 | 0.00 | 0.00 | 0.00 | 52 | 1017.9 |
| 20260502234313 | 49 | 341 | 3.0 | 9.0 | 0.00 | 0.00 | 0.00 | 51 | 1017.8 |
| 20260502233825 | 49 | 325 | 3.0 | 10.0 | 0.00 | 0.00 | 0.00 | 51 | 1017.7 |
| 20260502233318 | 50 | 8 | 6.0 | 11.0 | 0.00 | 0.00 | 0.00 | 49 | 1017.7 |
| 20260502232811 | 50 | 2 | 4.0 | 12.0 | 0.00 | 0.00 | 0.00 | 52 | 1017.7 |
| 20260502232324 | 50 | 45 | 4.0 | 10.0 | 0.00 | 0.00 | 0.00 | 50 | 1017.8 |
| 20260502231821 | 51 | 27 | 6.0 | 12.0 | 0.00 | 0.00 | 0.00 | 50 | 1017.7 |
| 20260502231314 | 51 | 325 | 6.0 | 11.0 | 0.00 | 0.00 | 0.00 | 49 | 1017.7 |
| 20260502230824 | 51 | 352 | 2.0 | 7.0 | 0.00 | 0.00 | 0.00 | 48 | 1017.6 |
| 20260502230316 | 51 | 358 | 2.0 | 13.0 | 0.00 | 0.00 | 0.00 | 50 | 1017.7 |
| 20260502225850 | 51 | 279 | 3.0 | 13.0 | 0.00 | 0.00 | 0.00 | 49 | 1017.7 |
| 20260502225321 | 52 | 350 | 4.0 | 12.0 | 0.00 | 0.00 | 0.00 | 48 | 1017.6 |
| 20260502224814 | 52 | 347 | 4.0 | 10.0 | 0.00 | 0.00 | 0.00 | 49 | 1017.6 |
| 20260502224327 | 52 | 322 | 1.0 | 7.0 | 0.00 | 0.00 | 0.00 | 50 | 1017.5 |
| 20260502223820 | 51 | 285 | 1.0 | 8.0 | 0.00 | 0.00 | 0.00 | 51 | 1017.5 |
| 20260502223317 | 51 | 311 | 2.0 | 8.0 | 0.00 | 0.00 | 0.00 | 50 | 1017.6 |
| 20260502222829 | 53 | 335 | 2.0 | 11.0 | 0.00 | 0.00 | 0.00 | 48 | 1017.5 |
| 20260502222322 | 54 | 318 | 5.0 | 11.0 | 0.00 | 0.00 | 0.00 | 46 | 1017.5 |
| 20260502221815 | 54 | 60 | 1.0 | 8.0 | 0.00 | 0.00 | 0.00 | 48 | 1017.5 |
| 20260502221328 | 53 | 73 | 2.0 | 12.0 | 0.00 | 0.00 | 0.00 | 49 | 1017.5 |
| 20260502220820 | 53 | 321 | 6.0 | 12.0 | 0.00 | 0.00 | 0.00 | 46 | 1017.4 |
| 20260502220312 | 54 | 17 | 3.0 | 8.0 | 0.00 | 0.00 | 0.00 | 46 | 1017.4 |
| 20260502215825 | 54 | 301 | 3.0 | 7.0 | 0.00 | 0.00 | 0.00 | 49 | 1017.3 |
| 20260502215321 | 54 | 330 | 1.0 | 8.0 | 0.00 | 0.00 | 0.00 | 49 | 1017.4 |
| 20260502214814 | 53 | 349 | 4.0 | 8.0 | 0.00 | 0.00 | 0.00 | 49 | 1017.3 |
| 20260502214327 | 52 | 44 | 4.0 | 8.0 | 0.00 | 0.00 | 0.00 | 48 | 1017.3 |
| 20260502213820 | 52 | 315 | 2.0 | 6.0 | 0.00 | 0.00 | 0.00 | 50 | 1017.4 |
| 20260502213313 | 53 | 346 | 2.0 | 7.0 | 0.00 | 0.00 | 0.00 | 47 | 1017.3 |
| 20260502212826 | 54 | 334 | 3.0 | 7.0 | 0.00 | 0.00 | 0.00 | 47 | 1017.3 |
| 20260502212318 | 53 | 25 | 1.0 | 8.0 | 0.00 | 0.00 | 0.00 | 49 | 1017.2 |
| 20260502211815 | 53 | 293 | 2.0 | 8.0 | 0.00 | 0.00 | 0.00 | 50 | 1017.2 |
| 20260502211329 | 52 | 342 | 2.0 | 9.0 | 0.00 | 0.00 | 0.00 | 51 | 1017.2 |
| 20260502210821 | 52 | 304 | 4.0 | 9.0 | 0.00 | 0.00 | 0.00 | 48 | 1017.1 |
| 20260502210314 | 53 | 339 | 2.0 | 7.0 | 0.00 | 0.00 | 0.00 | 47 | 1017.1 |
| 20260502205827 | 53 | 139 | 0.0 | 8.0 | 0.00 | 0.00 | 0.00 | 49 | 1017.2 |
| 20260502205320 | 54 | 281 | 0.0 | 8.0 | 0.00 | 0.00 | 0.00 | 49 | 1017.2 |
| 20260502204812 | 53 | 315 | 1.0 | 7.0 | 0.00 | 0.00 | 0.00 | 51 | 1017.2 |
| 20260502204325 | 52 | 203 | 3.0 | 10.0 | 0.00 | 0.00 | 0.00 | 50 | 1017.2 |
| 20260502203822 | 53 | 349 | 3.0 | 14.0 | 0.00 | 0.00 | 0.00 | 44 | 1017.2 |
| 20260502203315 | 54 | 8 | 5.0 | 14.0 | 0.00 | 0.00 | 0.00 | 46 | 1017.2 |
| 20260502202828 | 54 | 45 | 6.0 | 10.0 | 0.00 | 0.00 | 0.00 | 45 | 1017.2 |
| 20260502202321 | 55 | 224 | 1.0 | 7.0 | 0.00 | 0.00 | 0.00 | 48 | 1017.3 |